Volver al catálogo

CZ-8A R/B

ActivoPO
NORAD 69868·ROCKET BODY·🇨🇳 China

Lanzado Jul 5, 2026 desde Wenchang Space Launch Site

Loading…

Próximos Pases (próximas 24 horas)

TLE

ActualizadoSource: Space-Track

Época: Sep 14, 2026, 13:43 UTC

1 69868U 26155W   26257.57172750  .00000305  00000-0  72691-4 0  9999
2 69868  88.9671  53.3489 0100290 254.9980 104.0109 14.48304348 10273

Sigue CZ-8A R/B en tiempo real con AllMySat

Download on the App Store